EW5847 Weather Reports


time (UTC)temp
C
wind
direction
speed
KPH
gust
KPH
rain 1hr
cm
rain 24hr
cm
rain mn
cm
humidity
%
barometer
mb
20260508020433 8 345 0.0 0.0 0.00 0.13 0.10 64 1006.6
20260508015927 8 345 0.0 4.8 0.00 0.13 0.10 58 1006.5
20260508015426 8 345 0.0 4.8 0.00 0.13 0.10 51 1006.4
20260508014919 8 345 0.0 4.8 0.00 0.13 0.10 52 1006.2
20260508014409 8 345 0.0 4.8 0.00 0.13 0.10 51 1006.2
20260508013902 8 323 1.6 4.8 0.00 0.13 0.10 51 1006.2
20260508013402 9 323 1.6 8.0 0.00 0.13 0.10 52 1006.0
20260508012902 9 325 0.0 8.0 0.00 0.13 0.10 51 1006.0
20260508012633 9 341 0.0 0.0 0.00 0.13 0.10 60 1006.1
20260508012135 9 341 0.0 0.0 0.00 0.13 0.10 60 1005.9
20260508011402 10 341 0.0 0.0 0.00 0.13 0.10 59 1005.9
20260508010902 10 341 0.0 0.0 0.00 0.13 0.10 58 1005.7
20260508010404 10 342 0.0 0.0 0.00 0.15 0.10 58 1005.7
20260508005900 10 342 0.0 0.0 0.00 0.15 0.10 55 1005.7
20260508005631 10 341 0.0 0.0 0.00 0.15 0.10 56 1005.6
20260508005129 10 342 0.0 0.0 0.00 0.15 0.10 55 1005.5
20260508004359 11 341 0.0 3.2 0.00 0.15 0.10 52 1005.4
20260508003856 11 341 0.0 3.2 0.00 0.15 0.10 51 1005.3
20260508003357 11 341 0.0 3.2 0.00 0.15 0.10 50 1005.2
20260508002857 11 341 0.0 3.2 0.00 0.15 0.10 54 1005.2
20260508002622 11 341 0.0 3.2 0.00 0.15 0.10 50 1004.9
20260508001839 12 341 0.0 3.2 0.00 0.15 0.10 47 1004.8
20260508001339 12 341 0.0 3.2 0.00 0.15 0.10 43 1004.8
20260508000841 12 341 0.0 1.6 0.00 0.15 0.10 44 1004.7
20260508000342 12 341 0.0 0.0 0.00 0.15 0.10 47 1004.7
20260507235841 12 341 0.0 0.0 0.00 0.15 0.10 44 1004.7
20260507235611 13 341 0.0 8.0 0.00 0.15 0.10 45 1004.7
20260507234839 13 341 0.0 8.0 0.00 0.15 0.10 46 1004.6
20260507234341 13 341 1.6 8.0 0.00 0.15 0.10 40 1004.6
20260507233841 13 342 1.6 9.7 0.00 0.15 0.10 34 1004.6
20260507233335 13 346 3.2 12.9 0.00 0.15 0.10 35 1004.6
20260507232823 13 340 3.2 19.3 0.00 0.15 0.10 34 1004.5
20260507232324 13 329 3.2 19.3 0.00 0.15 0.10 35 1004.4
20260507232054 13 342 4.8 19.3 0.00 0.15 0.10 35 1004.4
20260507231325 13 317 4.8 19.3 0.00 0.15 0.10 33 1004.3
20260507230823 13 342 6.4 16.1 0.00 0.15 0.10 34 1004.2
20260507230324 13 295 6.4 16.1 0.00 0.15 0.10 34 1004.2
20260507225824 14 297 6.4 17.7 0.00 0.15 0.10 34 1004.1
20260507225323 14 295 6.4 17.7 0.00 0.15 0.10 33 1004.0
20260507224824 14 308 6.4 16.1 0.00 0.15 0.10 33 1003.9
20260507224320 14 341 4.8 25.7 0.00 0.15 0.10 34 1004.0
20260507223806 14 319 6.4 25.7 0.00 0.15 0.10 33 1003.9
20260507223257 15 322 9.7 25.7 0.00 0.15 0.10 32 1003.9
20260507222747 15 322 9.7 25.7 0.00 0.15 0.10 32 1003.9
20260507222236 15 348 8.0 25.7 0.00 0.15 0.10 33 1003.8
20260507221730 15 332 8.0 27.4 0.00 0.15 0.10 32 1003.7
20260507221458 15 312 9.7 27.4 0.00 0.15 0.10 31 1003.5
20260507220725 16 310 9.7 27.4 0.00 0.15 0.10 31 1003.7
20260507220225 16 292 9.7 27.4 0.00 0.15 0.10 32 1003.7
20260507215727 16 336 8.0 20.9 0.00 0.15 0.10 31 1003.7
20260507215227 16 297 8.0 20.9 0.00 0.15 0.10 31 1003.7
20260507214725 16 284 9.7 29.0 0.00 0.15 0.10 32 1003.7
20260507214224 16 290 9.7 29.0 0.00 0.15 0.10 30 1003.6
20260507213726 16 228 9.7 24.1 0.00 0.15 0.10 30 1003.7
20260507213224 16 315 8.0 24.1 0.00 0.18 0.10 31 1003.7
20260507212723 16 330 9.7 24.1 0.00 0.18 0.10 30 1003.6
20260507212225 16 340 11.3 25.7 0.00 0.18 0.10 30 1003.6
20260507211723 16 344 9.7 27.4 0.00 0.18 0.10 30 1003.6
20260507211225 16 5 8.0 27.4 0.00 0.20 0.10 30 1003.5
20260507210723 16 0 9.7 24.1 0.00 0.20 0.10 30 1003.5
20260507210226 16 306 11.3 27.4 0.00 0.23 0.10 30 1003.5
20260507205721 17 330 9.7 27.4 0.00 0.23 0.10 30 1003.4
20260507205221 17 316 11.3 32.2 0.00 0.25 0.10 31 1003.4
20260507204721 17 349 11.3 32.2 0.00 0.28 0.10 32 1003.4
20260507204217 17 296 9.7 29.0 0.00 0.30 0.10 32 1003.3
20260507204212 17 345 11.3 29.0 0.00 0.33 0.10 32 1003.3
20260507203158 17 273 8.0 24.1 0.00 0.36 0.10 31 1003.3
20260507202658 16 216 9.7 27.4 0.00 0.36 0.10 31 1003.3
20260507202146 16 336 9.7 27.4 0.00 0.38 0.10 33 1003.3
20260507202140 17 342 11.3 27.4 0.00 0.38 0.10 30 1003.3
20260507201134 17 277 11.3 27.4 0.00 0.38 0.10 33 1003.4
20260507200628 17 270 12.9 27.4 0.00 0.38 0.10 31 1003.3
20260507200123 17 333 11.3 27.4 0.00 0.41 0.10 32 1003.4
20260507195617 17 260 8.0 24.1 0.00 0.41 0.10 32 1003.5
20260507195106 17 296 8.0 24.1 0.00 0.41 0.10 31 1003.4
20260507194604 17 348 9.7 24.1 0.00 0.41 0.10 30 1003.5
20260507194058 17 313 9.7 27.4 0.00 0.43 0.10 28 1003.5
20260507193553 17 13 6.4 27.4 0.00 0.43 0.10 33 1003.5
20260507193319 17 175 4.8 20.9 0.00 0.61 0.10 33 1003.4
20260507192536 17 53 8.0 22.5 0.00 0.64 0.10 33 1003.5
20260507192034 17 342 8.0 22.5 0.00 0.66 0.10 31 1003.6
20260507191528 17 348 9.7 25.7 0.00 0.69 0.10 35 1003.6
20260507191253 17 322 9.7 25.7 0.00 0.69 0.10 33 1003.7
20260507190516 17 315 4.8 19.3 0.00 0.71 0.10 32 1003.7
20260507190006 17 325 6.4 20.9 0.00 0.74 0.10 37 1003.7
20260507185504 17 331 9.7 24.1 0.00 0.74 0.10 34 1003.7
20260507184958 17 13 9.7 24.1 0.00 0.76 0.10 31 1003.7
20260507184452 17 327 9.7 24.1 0.00 0.79 0.10 29 1003.8
20260507184447 17 5 8.0 19.3 0.00 0.79 0.10 33 1003.7
20260507183436 17 254 9.7 25.7 0.00 0.79 0.10 32 1003.7
20260507182934 16 329 9.7 25.7 0.00 0.79 0.10 33 1003.8
20260507182425 16 347 9.7 22.5 0.00 0.79 0.10 33 1003.9
20260507181922 16 298 11.3 24.1 0.00 0.79 0.10 32 1003.9
20260507181418 16 325 9.7 25.7 0.00 0.79 0.10 39 1004.0
20260507180906 16 90 11.3 25.7 0.00 0.79 0.10 41 1003.9
20260507180635 16 274 9.7 24.1 0.00 0.79 0.10 39 1003.9
20260507175854 16 273 9.7 24.1 0.00 0.79 0.10 43 1004.1
20260507175353 16 323 11.3 24.1 0.00 0.79 0.10 39 1004.0
20260507175118 16 281 11.3 25.7 0.00 0.79 0.10 41 1004.0
20260507174341 16 340 9.7 27.4 0.00 0.79 0.10 42 1004.1
20260507173834 16 5 9.7 27.4 0.00 0.79 0.10 41 1004.1
20260507173328 16 272 9.7 27.4 0.00 0.79 0.10 42 1004.0
20260507172823 16 338 9.7 24.1 0.00 0.79 0.10 45 1004.0
20260507172312 16 323 9.7 25.7 0.00 0.79 0.10 45 1004.2
20260507172042 15 267 9.7 32.2 0.00 0.79 0.10 46 1004.4
20260507171309 15 289 12.9 32.2 0.00 0.79 0.10 44 1004.4
20260507171041 15 323 12.9 32.2 0.00 0.79 0.10 43 1004.4
20260507170309 15 286 11.3 25.7 0.00 0.79 0.10 48 1004.3
20260507165810 15 272 9.7 24.1 0.00 0.79 0.10 45 1004.6
20260507165310 15 191 9.7 25.7 0.00 0.79 0.10 45 1004.5
20260507164815 15 340 11.3 25.7 0.00 0.79 0.10 46 1004.6
20260507164811 15 257 9.7 25.7 0.00 0.79 0.10 44 1004.5
20260507163808 15 275 12.9 29.0 0.00 0.79 0.10 45 1004.7
20260507163310 16 312 11.3 29.0 0.00 0.79 0.10 45 1004.6
20260507163042 16 306 12.9 27.4 0.00 0.79 0.10 48 1004.5
20260507162309 16 33 11.3 27.4 0.00 0.79 0.10 46 1004.6
20260507161810 16 290 9.7 22.5 0.00 0.79 0.10 47 1004.7
20260507161312 16 286 11.3 24.1 0.00 0.79 0.10 47 1004.7
20260507160810 15 0 9.7 24.1 0.00 0.79 0.10 48 1004.6
20260507160311 15 288 8.0 20.9 0.00 0.79 0.10 48 1004.8
20260507155809 15 282 9.7 20.9 0.00 0.79 0.10 47 1004.9
20260507155539 15 355 8.0 25.7 0.00 0.79 0.10 50 1005.1
20260507154810 15 332 8.0 25.7 0.00 0.79 0.10 51 1005.1
20260507154309 15 13 8.0 20.9 0.00 0.79 0.10 51 1005.1
20260507154039 15 275 8.0 20.9 0.00 0.79 0.10 49 1005.1
20260507153309 15 263 6.4 22.5 0.00 0.79 0.10 51 1005.0
20260507152809 15 297 8.0 22.5 0.00 0.79 0.10 49 1005.2
20260507152540 15 274 9.7 25.7 0.00 0.79 0.10 46 1005.1
20260507151809 15 304 9.7 25.7 0.00 0.79 0.10 47 1005.2
20260507151308 15 290 6.4 16.1 0.00 0.79 0.10 47 1005.2
20260507150811 15 350 3.2 20.9 0.00 0.79 0.10 51 1005.2
20260507150310 15 329 4.8 20.9 0.00 0.79 0.10 53 1005.2
20260507145810 15 321 8.0 20.9 0.00 0.79 0.10 52 1005.2
20260507145308 15 319 8.0 20.9 0.00 0.79 0.10 51 1005.2
20260507144809 15 285 8.0 19.3 0.00 0.79 0.10 52 1005.2
20260507144303 15 320 6.4 19.3 0.00 0.79 0.10 51 1005.3
20260507144024 15 336 6.4 17.7 0.00 0.79 0.10 54 1005.2
20260507143246 15 350 6.4 14.5 0.00 0.79 0.10 56 1005.2
20260507142746 14 288 4.8 16.1 0.00 0.79 0.10 56 1005.3
20260507142245 14 275 3.2 16.1 0.00 0.79 0.10 57 1005.3
20260507141745 13 355 1.6 8.0 0.00 0.79 0.10 59 1005.4
20260507141246 13 252 0.0 6.4 0.00 0.79 0.10 58 1005.4
20260507140746 13 299 0.0 6.4 0.00 0.79 0.10 64 1005.5
20260507140516 12 295 3.2 12.9 0.00 0.79 0.10 65 1005.6
20260507135745 12 295 4.8 12.9 0.00 0.79 0.10 64 1005.6
20260507135244 12 263 4.8 14.5 0.00 0.79 0.10 64 1005.8
20260507134745 12 346 6.4 14.5 0.00 0.79 0.10 66 1005.8
20260507134246 12 336 6.4 16.1 0.00 0.79 0.10 66 1005.8
20260507133748 12 260 6.4 16.1 0.00 0.79 0.10 67 1005.8
20260507133244 11 345 4.8 16.1 0.00 0.79 0.10 70 1005.8
20260507132744 11 292 6.4 16.1 0.00 0.79 0.10 69 1005.8
20260507132246 11 308 4.8 12.9 0.00 0.79 0.10 71 1005.9
20260507131745 11 355 4.8 14.5 0.00 0.79 0.10 73 1005.9
20260507131245 11 316 6.4 16.1 0.00 0.79 0.10 74 1006.0
20260507130739 11 272 6.4 16.1 0.00 0.79 0.10 74 1006.0
20260507130227 10 272 3.2 16.1 0.00 0.79 0.10 75 1006.0
20260507125717 10 325 4.8 12.9 0.00 0.79 0.10 79 1006.1
20260507125435 10 339 4.8 12.9 0.00 0.79 0.10 78 1006.1
20260507124651 10 339 3.2 11.3 0.00 0.79 0.10 79 1006.1
20260507124139 9 284 3.2 11.3 0.00 0.79 0.10 80 1006.0
20260507123634 9 317 3.2 9.7 0.00 0.79 0.10 82 1006.1
20260507123133 9 329 3.2 11.3 0.00 0.79 0.10 82 1006.1
20260507122630 9 320 1.6 11.3 0.00 0.79 0.10 84 1006.1
20260507122130 9 281 1.6 11.3 0.00 0.79 0.10 83 1006.1
20260507121630 8 283 1.6 11.3 0.00 0.79 0.10 86 1006.1
20260507121128 8 298 3.2 12.9 0.00 0.79 0.10 85 1006.1
20260507120859 8 329 1.6 12.9 0.00 0.79 0.10 88 1006.1
20260507120131 8 336 1.6 8.0 0.00 0.79 0.10 89 1006.1
20260507115900 8 336 1.6 8.0 0.00 0.79 0.10 89 1006.1
20260507115129 8 0 0.0 6.4 0.00 0.79 0.10 91 1006.2
20260507114902 8 342 0.0 1.6 0.00 0.79 0.10 91 1006.3
20260507114358 8 342 0.0 6.4 0.00 0.79 0.10 91 1006.2
20260507113625 7 342 0.0 6.4 0.00 0.79 0.10 91 1006.2
20260507113125 8 340 0.0 0.0 0.00 0.79 0.10 91 1006.0
20260507112625 8 340 0.0 0.0 0.00 0.79 0.10 91 1006.0
20260507112118 8 340 0.0 0.0 0.00 0.79 0.10 91 1005.9
20260507111607 7 340 0.0 4.8 0.00 0.79 0.10 92 1006.1
20260507111105 7 340 0.0 4.8 0.00 0.79 0.10 92 1006.2
20260507110559 7 337 0.0 0.0 0.00 0.79 0.10 92 1006.3
20260507110053 7 337 0.0 0.0 0.00 0.79 0.10 91 1006.3
20260507105545 7 337 0.0 0.0 0.00 0.79 0.10 91 1006.4
20260507105035 7 337 0.0 0.0 0.00 0.79 0.10 92 1006.4
20260507104529 7 337 0.0 0.0 0.00 0.79 0.10 92 1006.1
20260507104027 7 337 0.0 0.0 0.00 0.79 0.10 91 1006.1
20260507103515 7 337 0.0 0.0 0.00 0.79 0.10 91 1006.3
20260507103009 7 337 0.0 0.0 0.00 0.79 0.10 91 1006.7
20260507102507 7 337 0.0 0.0 0.00 0.79 0.10 91 1006.3
20260507102002 7 337 0.0 0.0 0.00 0.79 0.10 91 1006.3
20260507101456 7 337 0.0 0.0 0.00 0.79 0.10 91 1006.3
20260507100949 7 337 0.0 0.0 0.00 0.79 0.10 90 1006.5
20260507100439 7 337 0.0 0.0 0.00 0.79 0.10 90 1006.1
20260507095938 7 337 0.0 0.0 0.00 0.79 0.10 89 1006.1
20260507095932 7 337 0.0 0.0 0.00 0.79 0.10 89 1006.2
20260507095158 7 337 0.0 0.0 0.00 0.79 0.10 89 1006.3
20260507094419 7 337 0.0 0.0 0.00 0.79 0.10 89 1006.1
20260507094141 7 337 0.0 0.0 0.00 0.79 0.10 89 1005.9
20260507093402 7 337 0.0 0.0 0.00 0.79 0.10 89 1005.8
20260507092901 7 337 0.0 4.8 0.00 0.79 0.10 89 1005.7
20260507092355 8 337 0.0 4.8 0.00 0.79 0.10 88 1006.0
20260507091849 8 345 0.0 0.0 0.00 0.79 0.10 89 1005.7
20260507091339 8 345 0.0 0.0 0.00 0.79 0.10 88 1005.2
20260507090833 8 345 0.0 1.6 0.00 0.79 0.10 89 1005.5
20260507090332 8 345 0.0 1.6 0.00 0.79 0.10 89 1005.4
20260507085825 8 345 0.0 6.4 0.00 0.79 0.10 88 1005.6
20260507085320 8 345 0.0 6.4 0.00 0.79 0.10 89 1005.8
20260507084809 8 265 0.0 0.0 0.00 0.79 0.10 89 1005.6
20260507084308 8 264 0.0 0.0 0.00 0.79 0.10 89 1005.7
20260507083801 8 264 0.0 0.0 0.00 0.79 0.10 89 1005.7
20260507083251 8 265 0.0 0.0 0.00 0.79 0.10 89 1005.9
20260507082749 8 265 0.0 1.6 0.00 0.79 0.10 88 1006.0
20260507082239 8 265 1.6 8.0 0.00 0.79 0.10 87 1006.2
20260507081737 9 344 1.6 8.0 0.00 0.79 0.10 89 1005.9
20260507081232 9 349 0.0 3.2 0.00 0.79 0.10 90 1005.4
20260507080721 9 350 0.0 6.4 0.00 0.79 0.10 90 1005.2
20260507080219 9 355 0.0 6.4 0.00 0.79 0.10 91 1005.1
20260507075710 10 302 0.0 0.0 0.00 0.79 0.10 92 1005.3
20260507075438 10 302 0.0 0.0 0.00 0.79 0.10 92 1005.6
20260507074701 10 301 0.0 0.0 0.00 0.79 0.10 92 1005.4
20260507074157 10 301 0.0 3.2 0.00 0.79 0.10 92 1005.3
20260507073649 10 301 0.0 3.2 0.00 0.79 0.10 91 1005.4
20260507073139 10 301 0.0 3.2 0.00 0.79 0.10 92 1005.2
20260507072637 10 301 0.0 3.2 0.00 0.79 0.10 91 1005.1
20260507072131 10 300 0.0 0.0 0.00 0.79 0.10 91 1005.1
20260507071625 10 300 0.0 0.0 0.00 0.79 0.10 92 1005.1
20260507071119 10 300 0.0 0.0 0.00 0.79 0.10 92 1004.9
20260507070609 10 300 0.0 0.0 0.00 0.79 0.10 92 1004.9
20260507070107 10 300 0.0 0.0 0.00 0.79 0.10 91 1004.9
20260507065601 10 300 0.0 0.0 0.00 0.79 0.10 91 1004.9
20260507065055 10 300 0.0 0.0 0.00 0.79 0.10 91 1005.0
20260507064549 10 300 0.0 0.0 0.00 0.79 0.10 91 1004.8
20260507064039 10 300 0.0 0.0 0.00 0.79 0.10 91 1004.8
20260507063537 10 300 0.0 0.0 0.00 0.79 0.10 91 1004.8
20260507063031 10 300 0.0 0.0 0.00 0.79 0.10 91 1004.7
20260507062525 10 300 0.0 0.0 0.00 0.79 0.10 91 1004.7
20260507062020 10 300 0.0 6.4 0.00 0.79 0.10 91 1004.6
20260507061509 10 300 0.0 6.4 0.00 0.79 0.10 92 1004.6
20260507061007 11 300 0.0 6.4 0.00 0.79 0.10 92 1004.6
20260507060457 11 300 0.0 6.4 0.00 0.79 0.10 92 1004.3
20260507055955 11 191 0.0 0.0 0.00 0.79 0.10 92 1004.3
20260507055449 11 191 0.0 0.0 0.00 0.79 0.10 92 1004.5
20260507054940 11 192 0.0 4.8 0.00 0.79 0.10 92 1004.5
20260507054437 11 192 0.0 4.8 0.00 0.79 0.10 92 1004.5
20260507054158 11 327 0.0 4.8 0.00 0.79 0.10 92 1004.5
20260507053425 11 310 0.0 1.6 0.00 0.79 0.10 93 1004.4
20260507052915 11 310 0.0 6.4 0.00 0.79 0.10 93 1004.2
20260507052413 11 310 0.0 6.4 0.00 0.79 0.10 92 1004.2
20260507051907 11 328 0.0 6.4 0.00 0.79 0.10 92 1004.5
20260507051401 11 330 1.6 8.0 0.00 0.79 0.10 92 1004.2
20260507050856 11 315 1.6 8.0 0.03 0.79 0.10 92 1004.2
20260507050617 11 318 0.0 8.0 0.08 0.79 0.10 92 1004.2
20260507045845 11 317 1.6 8.0 0.10 0.79 0.10 92 1004.2
20260507045336 11 296 1.6 8.0 0.13 0.79 0.10 92 1004.2
20260507045057 11 327 1.6 8.0 0.13 0.79 0.10 92 1003.9
20260507044319 11 340 1.6 8.0 0.13 0.79 0.10 92 1004.0
20260507043813 11 322 1.6 11.3 0.13 0.79 0.10 92 1003.8
20260507043314 11 317 3.2 11.3 0.13 0.79 0.10 91 1003.7
20260507042810 11 315 4.8 14.5 0.13 0.79 0.10 91 1003.7
20260507042310 11 5 4.8 14.5 0.13 0.79 0.10 91 1003.5
20260507041809 12 342 4.8 14.5 0.13 0.79 0.10 91 1003.5
20260507041309 12 339 4.8 14.5 0.13 0.79 0.10 91 1003.5
20260507040810 12 328 3.2 12.9 0.10 0.76 0.08 92 1003.7
20260507040309 12 32 3.2 11.3 0.05 0.71 0.03 93 1003.8
20260507035811 12 340 3.2 11.3 0.03 0.69 0.69 93 1003.8
20260507035309 12 300 3.2 11.3 0.00 0.66 0.66 93 1003.6
20260507034759 12 350 3.2 12.9 0.00 0.66 0.66 94 1003.5
20260507034257 12 281 3.2 11.3 0.00 0.66 0.66 94 1003.6
20260507033752 12 279 1.6 11.3 0.00 0.66 0.66 94 1003.5
20260507033241 12 286 0.0 11.3 0.00 0.66 0.66 94 1003.4
20260507032739 12 265 0.0 1.6 0.00 0.66 0.66 94 1003.4
20260507032233 12 257 0.0 0.0 0.00 0.66 0.66 94 1003.3
20260507031728 12 257 0.0 0.0 0.00 0.66 0.66 94 1003.2
20260507031217 12 257 0.0 0.0 0.00 0.66 0.66 94 1003.1
20260507030711 12 257 0.0 0.0 0.00 0.66 0.66 94 1003.2
20260507030209 12 257 0.0 0.0 0.00 0.66 0.66 94 1003.2
20260507025703 12 257 0.0 0.0 0.00 0.66 0.66 94 1003.3
20260507025156 12 257 0.0 0.0 0.00 0.66 0.66 94 1003.2
20260507024918 12 257 0.0 0.0 0.00 0.66 0.66 94 1003.3
20260507024413 12 257 0.0 0.0 0.00 0.66 0.66 94 1003.3
20260507023910 12 257 0.0 4.8 0.00 0.66 0.66 94 1003.3
20260507023133 12 257 0.0 4.8 0.00 0.66 0.66 94 1003.2
20260507022628 12 257 0.0 6.4 0.00 0.66 0.66 94 1003.3
20260507022117 12 257 0.0 6.4 0.00 0.66 0.66 94 1003.4
20260507021611 12 254 0.0 1.6 0.00 0.66 0.66 93 1003.5
20260507021109 12 252 0.0 4.8 0.00 0.66 0.66 93 1003.5